�������l�o���
Date,Time,MP-1(��Sv/h),MP-2(��Sv/h),MP-3(��Sv/h),MP-4(��Sv/h),MP-5(��Sv/h),MP-6(��Sv/h),MP-7(��Sv/h),����,����(m/s),���J
2022/03/04,00:00,0.161,0.147,0.232,0.223,0.224,0.126,0.080,���k��,5.5,��
2022/03/04,00:10,0.161,0.147,0.232,0.223,0.224,0.125,0.080,���k��,6.6,��
2022/03/04,00:20,0.160,0.146,0.232,0.225,0.225,0.126,0.080,���k��,6.0,��
2022/03/04,00:30,0.160,0.146,0.232,0.224,0.224,0.127,0.080,���k��,6.0,��
2022/03/04,00:40,0.160,0.147,0.232,0.223,0.225,0.127,0.080,���k��,5.5,��
2022/03/04,00:50,0.161,0.147,0.233,0.224,0.225,0.127,0.079,���k��,6.2,��
2022/03/04,01:00,0.161,0.146,0.232,0.223,0.225,0.127,0.080,���k��,7.3,��
2022/03/04,01:10,0.161,0.147,0.233,0.224,0.224,0.126,0.081,�k��,6.1,��
2022/03/04,01:20,0.160,0.146,0.231,0.225,0.224,0.126,0.080,���k��,3.5,��
2022/03/04,01:30,0.160,0.146,0.231,0.225,0.225,0.127,0.080,��,4.7,��
2022/03/04,01:40,0.160,0.146,0.232,0.224,0.225,0.126,0.080,��,6.6,��
2022/03/04,01:50,0.160,0.147,0.231,0.223,0.225,0.126,0.080,��,9.4,��
2022/03/04,02:00,0.160,0.146,0.232,0.224,0.224,0.127,0.080,��,9.3,��
2022/03/04,02:10,0.160,0.146,0.232,0.224,0.224,0.126,0.080,��,8.4,��
2022/03/04,02:20,0.160,0.146,0.232,0.223,0.224,0.127,0.080,���k��,9.2,��
2022/03/04,02:30,0.160,0.147,0.233,0.223,0.223,0.126,0.080,���k��,8.9,��
2022/03/04,02:40,0.160,0.147,0.231,0.224,0.224,0.127,0.081,���k��,8.8,��
2022/03/04,02:50,0.161,0.146,0.231,0.224,0.224,0.127,0.081,���k��,10.8,��
2022/03/04,03:00,0.161,0.147,0.231,0.223,0.224,0.126,0.080,���k��,9.7,��
2022/03/04,03:10,0.160,0.146,0.231,0.224,0.226,0.126,0.080,���k��,8.7,��
2022/03/04,03:20,0.160,0.147,0.232,0.224,0.225,0.127,0.080,���k��,7.1,��
2022/03/04,03:30,0.160,0.148,0.232,0.224,0.225,0.126,0.080,���k��,7.1,��
2022/03/04,03:40,0.160,0.146,0.232,0.224,0.224,0.126,0.080,���k��,6.6,��
2022/03/04,03:50,0.160,0.147,0.233,0.223,0.225,0.126,0.080,�k��,4.4,��
2022/03/04,04:00,0.159,0.146,0.232,0.224,0.224,0.127,0.081,���k��,5.9,��
2022/03/04,04:10,0.160,0.147,0.233,0.224,0.225,0.127,0.080,��,7.3,��
2022/03/04,04:20,0.160,0.146,0.231,0.223,0.224,0.126,0.080,���k��,5.5,��
2022/03/04,04:30,0.160,0.147,0.232,0.224,0.224,0.126,0.080,���k��,5.8,��
2022/03/04,04:40,0.161,0.147,0.232,0.225,0.224,0.126,0.081,���k��,6.6,��
2022/03/04,04:50,0.161,0.147,0.232,0.223,0.225,0.127,0.080,���k��,5.4,��
2022/03/04,05:00,0.160,0.145,0.231,0.223,0.224,0.127,0.080,�k��,5.2,��
2022/03/04,05:10,0.161,0.147,0.232,0.224,0.225,0.126,0.080,�k��,5.2,��
2022/03/04,05:20,0.161,0.146,0.231,0.224,0.225,0.126,0.080,�k��,3.7,��
2022/03/04,05:30,0.160,0.147,0.232,0.224,0.225,0.126,0.081,�k��,4.6,��
2022/03/04,05:40,0.160,0.147,0.232,0.222,0.225,0.126,0.081,���k��,5.7,��
2022/03/04,05:50,0.160,0.146,0.232,0.222,0.223,0.127,0.080,���k��,6.0,��
2022/03/04,06:00,0.161,0.147,0.233,0.223,0.224,0.127,0.081,���k��,6.1,��
2022/03/04,06:10,0.160,0.146,0.232,0.224,0.224,0.126,0.081,���k��,5.0,��
2022/03/04,06:20,0.160,0.147,0.231,0.224,0.225,0.126,0.080,�k��,2.5,��
2022/03/04,06:30,0.160,0.146,0.231,0.225,0.225,0.127,0.080,�k�k��,1.6,��
2022/03/04,06:40,0.160,0.148,0.232,0.224,0.224,0.127,0.080,�k�k��,2.9,��
2022/03/04,06:50,0.160,0.147,0.232,0.224,0.224,0.127,0.080,�k,2.4,��
2022/03/04,07:00,0.160,0.146,0.232,0.223,0.224,0.127,0.081,�k��,1.1,��
2022/03/04,07:10,0.160,0.146,0.231,0.225,0.225,0.127,0.080,�k,1.9,��
2022/03/04,07:20,0.161,0.146,0.231,0.223,0.225,0.127,0.080,�k�k��,2.2,��
2022/03/04,07:30,0.160,0.146,0.231,0.223,0.223,0.126,0.080,�k,1.6,��
2022/03/04,07:40,0.160,0.147,0.232,0.222,0.225,0.126,0.080,�k�k��,1.3,��
2022/03/04,07:50,0.161,0.146,0.232,0.224,0.225,0.126,0.080,��,3.0,��
2022/03/04,08:00,0.159,0.147,0.232,0.222,0.225,0.126,0.079,���k��,3.5,��
2022/03/04,08:10,0.160,0.147,0.231,0.223,0.224,0.126,0.080,�k��,5.1,��
2022/03/04,08:20,0.160,0.147,0.232,0.223,0.224,0.126,0.079,�k��,5.4,��
2022/03/04,08:30,0.160,0.146,0.232,0.223,0.224,0.126,0.080,�k��,4.9,��
2022/03/04,08:40,0.160,0.145,0.230,0.223,0.224,0.126,0.080,���k��,4.8,��
2022/03/04,08:50,0.161,0.147,0.232,0.223,0.224,0.126,0.080,���k��,3.7,��
2022/03/04,09:00,0.160,0.145,0.231,0.223,0.225,0.126,0.079,���k��,4.8,��
2022/03/04,09:10,0.160,0.145,0.231,0.223,0.224,0.127,0.080,���k��,6.6,��
2022/03/04,09:20,0.160,0.145,0.231,0.223,0.225,0.126,0.079,�k��,7.4,��
2022/03/04,09:30,0.159,0.146,0.231,0.223,0.224,0.127,0.080,���k��,6.2,��
2022/03/04,09:40,0.159,0.146,0.231,0.222,0.225,0.126,0.079,���k��,5.0,��
2022/03/04,09:50,0.159,0.146,0.231,0.223,0.224,0.125,0.080,���k��,6.6,��
2022/03/04,10:00,0.160,0.145,0.231,0.222,0.225,0.126,0.080,��,5.9,��
2022/03/04,10:10,0.160,0.146,0.231,0.222,0.225,0.126,0.080,���k��,5.5,��
2022/03/04,10:20,0.159,0.146,0.232,0.223,0.224,0.125,0.080,�k��,6.2,��
2022/03/04,10:30,0.160,0.145,0.230,0.222,0.224,0.126,0.080,��,4.3,��
2022/03/04,10:40,0.159,0.147,0.231,0.223,0.223,0.125,0.080,�k��,4.7,��
2022/03/04,10:50,0.159,0.146,0.229,0.221,0.225,0.126,0.080,���k��,5.8,��
2022/03/04,11:00,0.161,0.146,0.233,0.223,0.223,0.126,0.080,���k��,1.1,��
2022/03/04,11:10,0.160,0.145,0.230,0.222,0.225,0.127,0.081,�쓌,4.4,��
2022/03/04,11:20,0.160,0.146,0.232,0.224,0.224,0.126,0.080,���쓌,4.1,��
2022/03/04,11:30,0.160,0.147,0.230,0.222,0.226,0.127,0.080,�쓌,5.5,��
2022/03/04,11:40,0.160,0.146,0.232,0.224,0.224,0.126,0.080,���쓌,5.0,��
2022/03/04,11:50,0.159,0.146,0.231,0.224,0.228,0.126,0.080,�쓌,4.6,��
2022/03/04,12:00,0.160,0.147,0.231,0.224,0.223,0.127,0.081,�쓌,4.1,��
2022/03/04,12:10,0.159,0.146,0.232,0.223,0.226,0.127,0.080,�쓌,3.7,��
2022/03/04,12:20,0.160,0.146,0.231,0.224,0.225,0.127,0.082,���쓌,5.9,��
2022/03/04,12:30,0.160,0.146,0.233,0.224,0.225,0.126,0.080,�쓌,3.0,��
2022/03/04,12:40,0.161,0.147,0.231,0.223,0.227,0.127,0.081,�쓌,4.1,��
2022/03/04,12:50,0.160,0.146,0.232,0.222,0.224,0.127,0.080,�쓌,4.6,��
2022/03/04,13:00,0.160,0.146,0.231,0.224,0.226,0.127,0.080,�쓌,5.4,��
2022/03/04,13:10,0.159,0.147,0.232,0.224,0.223,0.127,0.081,�쓌,6.3,��
2022/03/04,13:20,0.159,0.146,0.232,0.224,0.225,0.127,0.081,�쓌,6.6,��
2022/03/04,13:30,0.160,0.146,0.232,0.224,0.224,0.127,0.080,��쓌,5.5,��
2022/03/04,13:40,0.160,0.147,0.233,0.224,0.225,0.128,0.081,��쓌,5.2,��
2022/03/04,13:50,0.159,0.146,0.231,0.225,0.224,0.128,0.080,��쓌,5.4,��
2022/03/04,14:00,0.160,0.147,0.234,0.224,0.226,0.125,0.080,�쓌,5.7,��
2022/03/04,14:10,0.160,0.147,0.232,0.224,0.224,0.127,0.080,��쓌,6.1,��
2022/03/04,14:20,0.160,0.145,0.231,0.224,0.225,0.128,0.080,��쓌,7.1,��
2022/03/04,14:30,0.159,0.147,0.233,0.224,0.225,0.127,0.080,�쓌,6.5,��
2022/03/04,14:40,0.161,0.147,0.231,0.224,0.224,0.126,0.080,�쓌,6.9,��
2022/03/04,14:50,0.160,0.146,0.232,0.225,0.226,0.127,0.080,��쓌,6.1,��
2022/03/04,15:00,0.161,0.146,0.234,0.225,0.225,0.126,0.081,�쓌,5.5,��
2022/03/04,15:10,0.160,0.146,0.233,0.225,0.227,0.128,0.081,�쓌,5.2,��
2022/03/04,15:20,0.160,0.146,0.231,0.225,0.226,0.127,0.080,�쓌,5.5,��
2022/03/04,15:30,0.161,0.148,0.232,0.224,0.226,0.128,0.080,�쓌,5.1,��
2022/03/04,15:40,0.160,0.148,0.233,0.225,0.226,0.127,0.080,�쓌,4.9,��
2022/03/04,15:50,0.161,0.147,0.234,0.225,0.226,0.127,0.081,�쓌,5.5,��
2022/03/04,16:00,0.161,0.146,0.233,0.225,0.226,0.127,0.081,�쓌,6.2,��
2022/03/04,16:10,0.159,0.147,0.232,0.225,0.225,0.127,0.081,��쓌,6.6,��
2022/03/04,16:20,0.162,0.147,0.233,0.226,0.227,0.127,0.080,�쓌,6.6,��
2022/03/04,16:30,0.161,0.147,0.233,0.224,0.225,0.127,0.080,��쓌,5.7,��
2022/03/04,16:40,0.160,0.147,0.233,0.225,0.225,0.128,0.080,��쓌,6.2,��
2022/03/04,16:50,0.160,0.147,0.232,0.225,0.225,0.127,0.081,��쓌,6.6,��
2022/03/04,17:00,0.161,0.146,0.233,0.224,0.226,0.127,0.081,�쓌,5.2,��
2022/03/04,17:10,0.159,0.147,0.233,0.224,0.226,0.126,0.081,��쓌,4.7,��
2022/03/04,17:20,0.161,0.147,0.232,0.226,0.226,0.127,0.080,��쓌,5.5,��
2022/03/04,17:30,0.161,0.146,0.232,0.225,0.225,0.127,0.080,��,5.2,��
2022/03/04,17:40,0.161,0.147,0.233,0.224,0.227,0.127,0.081,��,5.4,��
2022/03/04,17:50,0.160,0.146,0.232,0.223,0.226,0.127,0.081,��,4.7,��
2022/03/04,18:00,0.160,0.147,0.233,0.225,0.225,0.126,0.080,��쓌,3.8,��
2022/03/04,18:10,0.161,0.147,0.232,0.224,0.227,0.128,0.080,��,4.0,��
2022/03/04,18:20,0.161,0.146,0.232,0.225,0.226,0.127,0.080,��,4.9,��
2022/03/04,18:30,0.160,0.147,0.231,0.224,0.226,0.127,0.080,��,4.6,��
2022/03/04,18:40,0.161,0.146,0.232,0.225,0.225,0.126,0.080,��,4.9,��
2022/03/04,18:50,0.161,0.147,0.231,0.224,0.224,0.128,0.081,��,5.0,��
2022/03/04,19:00,0.160,0.147,0.232,0.224,0.225,0.126,0.081,��,4.9,��
2022/03/04,19:10,0.160,0.147,0.232,0.224,0.226,0.128,0.081,��,5.0,��
2022/03/04,19:20,0.160,0.147,0.232,0.223,0.224,0.127,0.080,��,4.6,��
2022/03/04,19:30,0.160,0.146,0.233,0.226,0.224,0.126,0.080,��쓌,4.4,��
2022/03/04,19:40,0.162,0.147,0.232,0.225,0.225,0.127,0.080,��,4.3,��
2022/03/04,19:50,0.160,0.147,0.233,0.225,0.225,0.127,0.080,��,2.5,��
2022/03/04,20:00,0.159,0.146,0.232,0.225,0.225,0.127,0.081,��,2.7,��
2022/03/04,20:10,0.160,0.146,0.232,0.224,0.224,0.127,0.081,��,2.9,��
2022/03/04,20:20,0.160,0.147,0.232,0.225,0.225,0.128,0.081,��,1.9,��
2022/03/04,20:30,0.160,0.147,0.233,0.224,0.225,0.127,0.080,��쓌,1.0,��
2022/03/04,20:40,0.160,0.146,0.233,0.224,0.224,0.127,0.081,��,3.5,��
2022/03/04,20:50,0.160,0.147,0.232,0.223,0.223,0.127,0.080,��쓌,3.7,��
2022/03/04,21:00,0.161,0.147,0.233,0.225,0.224,0.127,0.080,��,3.0,��
2022/03/04,21:10,0.159,0.147,0.231,0.224,0.224,0.128,0.081,��,2.7,��
2022/03/04,21:20,0.159,0.147,0.232,0.224,0.226,0.127,0.080,��,2.4,��
2022/03/04,21:30,0.160,0.146,0.233,0.223,0.226,0.126,0.080,��,2.2,��
2022/03/04,21:40,0.161,0.147,0.232,0.224,0.225,0.127,0.081,��,2.2,��
2022/03/04,21:50,0.160,0.147,0.232,0.224,0.225,0.127,0.081,��쐼,2.4,��
2022/03/04,22:00,0.160,0.147,0.233,0.224,0.225,0.127,0.081,��쐼,2.2,��
2022/03/04,22:10,0.160,0.148,0.231,0.224,0.226,0.127,0.081,��쐼,2.1,��
2022/03/04,22:20,0.160,0.148,0.233,0.225,0.226,0.128,0.081,��쐼,1.6,��
2022/03/04,22:30,0.161,0.146,0.233,0.224,0.226,0.127,0.080,��,1.9,��
2022/03/04,22:40,0.161,0.146,0.232,0.223,0.224,0.127,0.081,��쐼,1.6,��
2022/03/04,22:50,0.160,0.147,0.232,0.225,0.225,0.127,0.080,��쐼,1.4,��
2022/03/04,23:00,0.161,0.147,0.232,0.224,0.225,0.127,0.081,��,1.0,��
2022/03/04,23:10,0.161,0.146,0.233,0.224,0.226,0.127,0.080,��,0.7,��
2022/03/04,23:20,0.161,0.147,0.234,0.223,0.225,0.127,0.080,��쐼,0.7,��
2022/03/04,23:30,0.160,0.148,0.234,0.225,0.225,0.126,0.081,�쐼,1.1,��
2022/03/04,23:40,0.160,0.147,0.232,0.224,0.224,0.127,0.081,�쐼,1.0,��
2022/03/04,23:50,0.160,0.148,0.232,0.225,0.225,0.127,0.080,��쐼,1.1,��
